Powrót do katalogu

STARLINK-2542

AktywnyŁącznośćVLEO
NORAD 48292·PAYLOAD·🇺🇸 United States

Wystrzelony Apr 29, 2021 z Cape Canaveral Space Force Station

Loading…

Następne Przeloty (najbliższe 24 godziny)

TLE

ŚwieżeSource: CelesTrak SupGP

Epoka: Sep 14, 2026, 21:56 UTC

1 48292C 21036S   26257.91437500  .00050345  00000+0  16187-2 0  2576
2 48292  53.1581 274.6394 0001291  85.7674 322.2127 15.31681795    11

Śledź STARLINK-2542 w czasie rzeczywistym z AllMySat

Download on the App Store